{"data":{"norad_id":65719,"epoch":"2026-05-25T04:08:06.771840Z","epoch_age_seconds":59835,"freshness":"FRESH","line1":"1 65719U 25214H   26145.17230060  .00001543  00000+0  21399-3 0  9998","line2":"2 65719  49.9816  54.5680 0009650 145.1193 215.0379 14.83274754 36101","mean_motion":14.83274754,"eccentricity":0.000965,"inclination_deg":49.9816,"raan_deg":54.568,"arg_perigee_deg":145.1193,"mean_anomaly_deg":215.0379,"bstar":0.00021399,"rev_number":3610,"period_min":97.082485636373,"perigee_km":612.25410704969,"apogee_km":625.75859371593,"semimajor_km":6997.1433503828,"source":"CELESTRAK","updated_at":"2026-05-25T13:38:05.628309Z"}}